timestamp,surface_pressure_avg,surface_temp_avg,battery_voltage,lat,long
2021-06-20 00:09:01+00:00,216.4464,11.9,13.29,47.84626,-54.09684
2021-06-20 00:19:00+00:00,208.3981,11.9,12.89,47.84626,-54.09684
2021-06-20 00:29:00+00:00,209.6631,11.98,12.89,47.84626,-54.09684
2021-06-20 00:39:00+00:00,212.5581,11.9,12.89,47.84626,-54.09684
2021-06-20 00:49:00+00:00,208.1165,11.98,12.89,47.84626,-54.09684
2021-06-20 00:59:00+00:00,207.9798,12.0,12.89,47.84626,-54.09684
2021-06-20 01:09:00+00:00,210.2281,11.96,12.89,47.84626,-54.09684
2021-06-20 01:19:00+00:00,212.2364,11.96,12.73,47.84626,-54.09684
2021-06-20 01:29:00+00:00,213.2565,12.0,12.73,47.84626,-54.09684
2021-06-20 01:39:00+00:00,213.7198,12.1,12.73,47.84626,-54.09684
2021-06-20 01:49:00+00:00,214.3765,12.25,12.73,47.84626,-54.09684
2021-06-20 01:59:00+00:00,216.9897,12.48,12.73,47.84626,-54.09684
2021-06-20 02:09:00+00:00,218.833,12.65,12.73,47.84626,-54.09684
2021-06-20 02:19:00+00:00,215.5265,12.75,12.65,47.84626,-54.09684
2021-06-20 02:29:00+00:00,214.7297,12.7,12.65,47.84626,-54.09684
2021-06-20 02:39:00+00:00,220.5348,12.6,12.65,47.84626,-54.09684
2021-06-20 02:49:00+00:00,223.1097,12.6,12.65,47.84626,-54.09684
2021-06-20 02:59:00+00:00,220.6681,12.69,12.65,47.84626,-54.09684
2021-06-20 03:09:00+00:00,229.9514,12.6,12.65,47.84626,-54.09684
2021-06-20 03:19:00+00:00,239.3998,12.47,12.65,47.84626,-54.09684
2021-06-20 03:29:00+00:00,239.9664,12.46,12.65,47.84626,-54.09684
2021-06-20 03:39:00+00:00,241.7014,12.5,12.65,47.84626,-54.09684
2021-06-20 03:49:00+00:00,249.2781,12.5,12.65,47.84626,-54.09684
2021-06-20 03:59:00+00:00,252.2231,12.4,12.65,47.84626,-54.09684
2021-06-20 04:09:00+00:00,250.0564,12.5,12.65,47.84626,-54.09684
2021-06-20 04:19:00+00:00,256.0214,12.49,12.65,47.84626,-54.09684
2021-06-20 04:29:00+00:00,266.5964,12.3,12.65,47.84626,-54.09684
2021-06-20 04:39:00+00:00,270.278,12.2,12.65,47.84626,-54.09684
2021-06-20 04:49:00+00:00,271.0948,12.3,12.65,47.84626,-54.09684
2021-06-20 04:59:00+00:00,282.978,12.2,12.65,47.84626,-54.09684
2021-06-20 05:09:00+00:00,293.5864,12.0,12.65,47.84626,-54.09684
2021-06-20 05:19:00+00:00,292.3096,12.18,12.65,47.84626,-54.09684
2021-06-20 05:29:00+00:00,293.1414,12.2,12.65,47.84626,-54.09684
2021-06-20 05:39:00+00:00,304.973,12.0,12.65,47.84626,-54.09684
2021-06-20 05:49:00+00:00,310.7562,11.79,12.65,47.84626,-54.09684
2021-06-20 05:59:00+00:00,310.5713,12.08,12.65,47.84626,-54.09684
2021-06-20 06:09:00+00:00,313.7014,12.1,12.65,47.84626,-54.09684
2021-06-20 06:19:00+00:00,319.6746,11.65,12.65,47.84626,-54.09684
2021-06-20 06:29:00+00:00,319.743,11.65,12.65,47.84626,-54.09684
2021-06-20 06:39:00+00:00,325.5179,11.88,12.65,47.84626,-54.09684
2021-06-20 06:49:00+00:00,332.5163,11.9,12.65,47.84626,-54.09684
2021-06-20 06:59:00+00:00,334.9297,11.86,12.65,47.84626,-54.09684
2021-06-20 07:09:00+00:00,333.0247,11.93,12.65,47.84626,-54.09684
2021-06-20 07:19:01+00:00,331.68300000000005,12.13,12.65,47.84626,-54.09684
2021-06-20 07:29:01+00:00,330.0647,11.8,12.65,47.84626,-54.09684
2021-06-20 07:39:01+00:00,328.8663,11.7,12.65,47.84626,-54.09684
2021-06-20 07:49:01+00:00,330.49300000000005,11.84,12.65,47.84626,-54.09684
2021-06-20 07:59:01+00:00,329.8463,12.0,12.65,47.84626,-54.09684
2021-06-20 08:09:01+00:00,323.4796,11.9,12.65,47.84626,-54.09684
2021-06-20 08:19:00+00:00,326.6263,11.8,12.57,47.84626,-54.09684
2021-06-20 08:29:00+00:00,328.4362,11.96,12.57,47.84626,-54.09684
2021-06-20 08:39:00+00:00,320.413,12.2,12.57,47.84626,-54.09684
2021-06-20 08:49:00+00:00,312.4647,12.32,12.57,47.84626,-54.09684
2021-06-20 08:59:00+00:00,314.613,12.35,12.57,47.84626,-54.09684
2021-06-20 09:09:00+00:00,310.7697,12.36,12.57,47.84626,-54.09684
2021-06-20 09:19:01+00:00,302.2363,12.4,12.57,47.84626,-54.09684
2021-06-20 09:29:01+00:00,300.2714,12.3,12.57,47.84626,-54.09684
2021-06-20 09:39:01+00:00,298.383,12.3,12.57,47.84626,-54.09684
2021-06-20 09:49:01+00:00,288.5147,12.3,12.57,47.84626,-54.09684
2021-06-20 09:59:01+00:00,281.0797,12.33,12.57,47.84626,-54.09684
2021-06-20 10:09:01+00:00,277.7231,12.3,12.57,47.84626,-54.09684
2021-06-20 10:19:00+00:00,269.4664,12.3,12.73,47.84626,-54.09684
2021-06-20 10:29:00+00:00,256.3248,12.34,12.73,47.84626,-54.09684
2021-06-20 10:39:00+00:00,248.6697,12.39,12.73,47.84626,-54.09684
2021-06-20 10:49:00+00:00,247.1614,12.4,12.73,47.84626,-54.09684
2021-06-20 10:59:00+00:00,238.6998,12.41,12.73,47.84626,-54.09684
2021-06-20 11:09:00+00:00,226.8814,12.5,12.73,47.84626,-54.09684
2021-06-20 11:19:00+00:00,221.3615,12.58,12.73,47.84626,-54.09684
2021-06-20 11:29:00+00:00,219.1281,12.6,12.73,47.84626,-54.09684
2021-06-20 11:39:00+00:00,214.6381,12.6,12.73,47.84626,-54.09684
2021-06-20 11:49:00+00:00,210.9264,12.6,12.73,47.84626,-54.09684
2021-06-20 11:59:00+00:00,209.7115,12.6,12.73,47.84626,-54.09684
2021-06-20 12:09:00+00:00,209.8948,12.6,12.73,47.84626,-54.09684
2021-06-20 12:19:00+00:00,207.0548,12.6,12.97,47.84626,-54.09684
2021-06-20 12:29:00+00:00,205.5864,12.6,12.97,47.84626,-54.09684
2021-06-20 12:39:00+00:00,206.3048,12.6,12.97,47.84626,-54.09684
2021-06-20 12:49:00+00:00,205.3664,12.6,12.97,47.84626,-54.09684
2021-06-20 12:59:00+00:00,204.2914,12.6,12.97,47.84626,-54.09684
2021-06-20 13:09:00+00:00,200.8148,12.6,12.97,47.84626,-54.09684
2021-06-20 13:19:00+00:00,200.3964,12.6,13.13,47.84626,-54.09684
2021-06-20 13:29:00+00:00,207.4131,12.6,13.13,47.84626,-54.09684
2021-06-20 13:39:00+00:00,211.3531,12.6,13.13,47.84626,-54.09684
2021-06-20 13:49:00+00:00,208.7964,12.6,13.13,47.84626,-54.09684
2021-06-20 13:59:00+00:00,212.2498,12.6,13.13,47.84626,-54.09684
2021-06-20 14:09:00+00:00,218.4581,12.59,13.13,47.84626,-54.09684
2021-06-20 14:19:00+00:00,217.4981,12.57,13.21,47.84626,-54.09684
2021-06-20 14:29:00+00:00,217.3964,12.58,13.21,47.84626,-54.09684
2021-06-20 14:39:00+00:00,222.5881,12.55,13.21,47.84626,-54.09684
2021-06-20 14:49:00+00:00,224.0164,12.5,13.21,47.84626,-54.09684
2021-06-20 14:59:00+00:00,223.1981,12.5,13.21,47.84626,-54.09684
2021-06-20 15:09:00+00:00,222.1881,12.5,13.21,47.84626,-54.09684
2021-06-20 15:19:00+00:00,222.6614,12.53,13.37,47.84626,-54.09684
2021-06-20 15:29:00+00:00,223.4964,12.57,13.37,47.84626,-54.09684
2021-06-20 15:39:00+00:00,225.7881,12.62,13.37,47.84626,-54.09684
2021-06-20 15:49:00+00:00,228.3314,12.72,13.37,47.84626,-54.09684
2021-06-20 15:59:00+00:00,233.7064,12.83,13.37,47.84626,-54.09684
2021-06-20 16:09:00+00:00,239.8481,12.9,13.37,47.84626,-54.09684
2021-06-20 16:19:00+00:00,247.0064,12.92,13.29,47.84626,-54.09684
2021-06-20 16:29:00+00:00,254.8581,12.9,13.29,47.84626,-54.09684
2021-06-20 16:39:00+00:00,262.8364,12.89,13.29,47.84626,-54.09684
2021-06-20 16:49:00+00:00,268.2614,12.86,13.29,47.84626,-54.09684
2021-06-20 16:59:00+00:00,277.478,12.9,13.29,47.84626,-54.09684
2021-06-20 17:09:00+00:00,287.4147,12.9,13.29,47.84626,-54.09684
2021-06-20 17:19:01+00:00,292.538,12.9,13.29,47.84626,-54.09684
2021-06-20 17:29:01+00:00,296.053,12.8,13.29,47.84626,-54.09684
2021-06-20 17:39:01+00:00,305.153,12.77,13.29,47.84626,-54.09684
2021-06-20 17:49:01+00:00,313.4563,12.6,13.29,47.84626,-54.09684
2021-06-20 17:59:01+00:00,316.4964,12.56,13.29,47.84626,-54.09684
2021-06-20 18:09:01+00:00,321.5847,12.5,13.29,47.84626,-54.09684
2021-06-20 18:19:00+00:00,329.8829,12.3,13.05,47.84626,-54.09684
2021-06-20 18:29:00+00:00,332.973,12.13,13.05,47.84626,-54.09684
2021-06-20 18:39:00+00:00,333.9263,12.05,13.05,47.84626,-54.09684
2021-06-20 18:49:00+00:00,341.4313,11.8,13.05,47.84626,-54.09684
2021-06-20 18:59:00+00:00,344.5379,11.7,13.05,47.84626,-54.09684
2021-06-20 19:09:00+00:00,345.5913,11.8,13.05,47.84626,-54.09684
2021-06-20 19:19:00+00:00,346.6929,11.79,12.97,47.84626,-54.09684
2021-06-20 19:29:00+00:00,352.1696,11.6,12.97,47.84626,-54.09684
2021-06-20 19:39:00+00:00,349.2629,11.59,12.97,47.84626,-54.09684
2021-06-20 19:49:00+00:00,346.5396,11.75,12.97,47.84626,-54.09684
2021-06-20 19:59:00+00:00,346.5096,11.7,12.97,47.84626,-54.09684
2021-06-20 20:09:00+00:00,345.2229,11.5,12.97,47.84626,-54.09684
2021-06-20 20:19:01+00:00,346.5229,11.4,12.97,47.84626,-54.09684
2021-06-20 20:29:01+00:00,346.6829,11.44,12.97,47.84626,-54.09684
2021-06-20 20:39:01+00:00,346.0229,11.5,12.97,47.84626,-54.09684
2021-06-20 20:49:01+00:00,342.6214,11.5,12.97,47.84626,-54.09684
2021-06-20 20:59:01+00:00,341.6446,11.43,12.97,47.84626,-54.09684
2021-06-20 21:09:01+00:00,335.64300000000014,11.68,12.97,47.84626,-54.09684
2021-06-20 21:19:01+00:00,323.8879,11.65,12.89,47.84626,-54.09684
2021-06-20 21:29:01+00:00,320.2162,11.3,12.89,47.84626,-54.09684
2021-06-20 21:39:01+00:00,318.4813,11.43,12.89,47.84626,-54.09684
2021-06-20 21:49:01+00:00,310.1913,11.57,12.89,47.84626,-54.09684
2021-06-20 21:59:01+00:00,301.7364,11.65,12.89,47.84626,-54.09684
2021-06-20 22:09:01+00:00,301.2731,11.6,12.89,47.84626,-54.09684
2021-06-20 22:19:01+00:00,296.2113,11.68,12.81,47.84626,-54.09684
2021-06-20 22:29:01+00:00,287.223,11.77,12.81,47.84626,-54.09684
2021-06-20 22:39:01+00:00,283.8497,11.7,12.81,47.84626,-54.09684
2021-06-20 22:49:01+00:00,285.0447,11.7,12.81,47.84626,-54.09684
2021-06-20 22:59:01+00:00,275.6214,11.79,12.81,47.84626,-54.09684
2021-06-20 23:09:01+00:00,262.2531,11.84,12.81,47.84626,-54.09684
2021-06-20 23:19:01+00:00,257.598,11.87,12.73,47.84626,-54.09684
2021-06-20 23:29:01+00:00,253.9697,11.82,12.73,47.84626,-54.09684
2021-06-20 23:39:01+00:00,244.9348,11.8,12.73,47.84626,-54.09684
2021-06-20 23:49:01+00:00,238.2698,11.8,12.73,47.84626,-54.09684
2021-06-20 23:59:01+00:00,237.4597,11.8,12.73,47.84626,-54.09684
